Location: De Greiden
(52.9496°N, 5.9137°E)
Time: 23:20:15
(UTC+00:00)

Cosmos 2058 Rocket - Pass Details

Date: 24 January 2021
Orbit: 611 x 639 km, 82.5° (Epoch: 01 March)

Event Time Altitude Azimuth Distance (km) Brightness Sun altitude
Rises 16:58:27 0° 350° (N) 2,948 6.4 -7.9°
Reaches altitude 10° 17:00:43 10° 353° (N) 2,037 5.6 -8.2°
Maximum altitude 17:05:14 70° 77° (ENE) 684 3.1 -8.8°
Drops below altitude 10° 17:09:43 10° 162° (SSE) 2,027 5.7 -9.4°
Sets 17:11:58 0° 164° (SSE) 2,932 6.6 -9.8°
